Regional Weather Roundup
Issued by NWS

Home | Current Version | Previous Version | Graphics & Text | Print | Product List | Glossary On
Versions: 1 2 3 4 5 6 7 8 9 10 11 12 13 14 15 16 17 18 19 20 21 22 23 24 25 26 27 28 29 30 31 32 33 34 35 36 37 38 39 40 41 42 43 44 45 46 47 48 49 50
000
ASUS45 KBOU 191907
RWRCO

WEATHER ROUNDUP FOR COLORADO
NATIONAL WEATHER SERVICE DENVER/BOULDER CO
100 PM MDT THU OCT 19 2017

NOTE: "FAIR" INDICATES FEW OR NO CLOUDS BELOW 12000 FEET WITH NO
SIGNIFICANT WEATHER AND/OR OBSTRUCTIONS TO VISIBILITY.

COZ001>005-013-030-031-192000-
...NORTHWEST COLORADO...

CITY           SKY/WX    TMP DP  RH WIND       PRES   REMARKS
CRAIG          FAIR      69  12  11 W8        30.09F
HAYDEN         FAIR      67  19  16 NW7       30.11F
MEEKER         FAIR      72  19  13 W8        30.08F
RABBIT EARS PA FAIR      52  19  28 SW3       30.32F
STEAMBOAT SPGS FAIR      64  12  13 CALM      30.11F
WALDEN         NOT AVBL
$$

COZ006>008-011-192000-
...WEST CENTRAL VALLEYS...

CITY           SKY/WX    TMP DP  RH WIND       PRES   REMARKS
GRAND JUNCTION PTSUNNY   66  16  14 CALM      30.05F
MONTROSE       FAIR      67  20  16 N5        30.10F
EAGLE          FAIR      58  18  21 SW5       30.16F
RIFLE          FAIR      64  19  17 CALM      30.07F
DELTA          FAIR      68  15  13 CALM      30.07F
NUCLA          PTSUNNY   70  18  13 NW8       30.14F
$$

COZ017>023-064>068-192000-
...SOUTHWEST COLORADO...

CITY           SKY/WX    TMP DP  RH WIND       PRES   REMARKS
DURANGO        CLOUDY    69  21  16 E8        30.15F
CORTEZ         PTSUNNY   70  23  17 SW14      30.12F
PAGOSA SPRINGS FAIR      66  13  13 SW9       30.21F
TELLURIDE      PTSUNNY   60  19  20 W7        30.26F
WOLF CREEK PAS FAIR      46  18  31 S12G17    30.48F
$$

COZ009-010-012-014-032>034-037-058>063-192000-
...CENTRAL COLORADO...

CITY           SKY/WX    TMP DP  RH WIND       PRES   REMARKS
ASPEN          FAIR      68  18  14 NW7       30.15F
BUENA VISTA    FAIR      61  11  14 S3        30.19F
COPPER MTN     FAIR      59  18  20 S9G20     30.41F
BERTHOUD PASS  FAIR      43  32  65 W13G28    30.44F
COTTONWOOD PAS FAIR      61  12  15 SE7       30.30F
GUNNISON       FAIR      57  11  16 CALM      30.21F
KREMMLING      FAIR      59  14  17 CALM      30.19F
LEADVILLE      FAIR      58  14  17 S10G17    30.26F
MONARCH PASS   FAIR      46  18  31 SW17G23   30.53F
SALIDA         FAIR      62  10  13 CALM      30.25F
SUNLIGHT       FAIR      52  18  25 SW5       30.38F
WILKERSON PASS FAIR      52   9  17 SW7       30.40F
$$

COZ069>075-192000-
...SAN LUIS VALLEY/SANGRE DE CRISTO MOUNTAINS...

CITY           SKY/WX    TMP DP  RH WIND       PRES   REMARKS
ALAMOSA        FAIR      62  17  17 NW5       30.20F
DEL NORTE      FAIR      60  18  19 E7        30.23F
LA VETA PASS   FAIR      54  19  26 SW14      30.44F
SAGUACHE       FAIR      61  14  16 SE5       30.24F
$$

COZ035-036-038>040-192000-
...NORTHERN COLORADO FRONT RANGE...

CITY           SKY/WX    TMP DP  RH WIND       PRES   REMARKS
DENVER INTL AP PTSUNNY   74  22  14 VRB5      30.01F
DMNS CITY PARK   N/A     74  19  12 N6G12     29.99F
AURORA         PTSUNNY   75  22  13 NW3       30.01F
FRONT RANGE AP PTSUNNY   75  27  16 CALM      30.02
ERIE MUNI ARPT FAIR      70  17  13 CALM      30.05F
BOULDER MUN AP FAIR      68  27  21 CALM      30.01F
CENTENNIAL     PTSUNNY   75  17  11 N3        30.02F
BROOMFIELD     PTSUNNY   72  16  12 CALM      30.03F
FORT COLLINS   FAIR      67  31  26 CALM      30.01F
LONGMONT       FAIR      71  26  18 CALM      30.01F
$$

COZ041-046-047-076>085-087-088-192000-
...PIKES PEAK/PALMER DIVIDE AND SOUTHERN FOOTHILLS...

CITY           SKY/WX    TMP DP  RH WIND       PRES   REMARKS
COLO. SPRINGS  PTSUNNY   72  26  18 S14       30.09F
A. F. ACADEMY  FAIR      69  21  16 S12       30.09F
SCHRIEVER AFB  FAIR      69  19  14 S8        30.10F
CHEYENNE MTN   NOT AVBL
ELLICOTT       FAIR     N/A N/A N/A S15       30.08F
FALCON         FAIR      69  16  13 S18G25    30.14F
FORT CARSON    FAIR      72  25  17 SE10      30.06F
LIMON          FAIR      74  27  17 S13G22    30.05F
MONUMENT HILL  FAIR      70  21  16 S17       30.12F
CANON CITY     FAIR      75  21  13 W3        30.03F
WALSENBURG     FAIR      77  25  14 N5        30.06F
TRINIDAD       FAIR      74  24  15 E8        30.07F
$$

COZ042>045-048>051-090-091-192000-
...NORTHEAST COLORADO...

CITY           SKY/WX    TMP DP  RH WIND       PRES   REMARKS
GREELEY ARPT   FAIR      66  28  24 CALM      30.00F
AKRON          FAIR      80  25  13 S18       29.99F
BURLINGTON     FAIR      79  44  28 S21G29    30.02F
WRAY           NOT AVBL
YUMA           NOT AVBL
STERLING       FAIR      75  37  25 SW6       29.95F
HOLYOKE        FAIR      84  39  20 S18       29.97F
FORT MORGAN    FAIR      72  26  18 SW5       29.99F
$$

COZ086-089-092>099-192000-
...SOUTHEAST COLORADO...

CITY           SKY/WX    TMP DP  RH WIND       PRES   REMARKS
PUEBLO         FAIR      70  27  20 SE5       30.01F
LA JUNTA       FAIR      70  31  23 VRB3      30.02F
LAMAR          FAIR      74  40  29 SE7       29.99F
SPRINGFIELD      N/A     74  41  30 S13       30.03
$$



USA.gov is the U.S. government's official web portal to all federal, state and local government web resources and services.